[[{"header":{"parameterUnit":"m.s-1","parameterCategory":1,"la1":30.2991,"la2":30.254,"lo1":-89.0895,"lo2":-89.0444,"dy":0.0017,"dx":0.0017,"nx":28,"ny":28,"refTime":"2025-09-16T09:00:00:Z","depth":0,"parameterNumber":2,"parameterNumberName":"U-component_of_WINDS"},"data":[0,0,0,0,0,0,0,0,0,0,0,0,0,0,0,0,0,0,0,0,0,0,0,0,0,0,0,0,0,0,0,0,0,0,0,0,0,0,0,0,0,0,0,0,0,0,0,0,0,0,0,0,0,0,0,0,0,0,-0.7173,-0.7172,0,-0.7125,-0.7124,-0.7123,-0.7096,-0.7096,-0.7096,-0.7096,-0.7048,-0.7047,-0.7045,0,0,0,0,0,0,0,0,0,0,0,0,0,-0.7245,-0.7243,-0.7173,-0.7172,-0.7172,-0.7125,-0.7124,-0.7123,-0.7096,-0.7096,-0.7096,-0.7096,-0.7048,-0.7047,-0.7045,0,0,0,0,0,0,0,0,0,0,0,0,0,-0.7207,-0.7243,-0.7173,-0.7152,-0.715,-0.7125,-0.7124,-0.7123,-0.7096,-0.7096,-0.7096,-0.7096,-0.7049,-0.7047,-0.7045,-0.7037,0,0,-0.704,-0.7039,0,0,0,0,0,0,0,0,-0.7209,-0.7204,-0.7156,-0.7154,-0.7151,-0.7116,-0.7131,-0.7094,-0.7096,-0.7117,-0.7096,-0.7096,-0.7071,-0.7067,-0.7058,-0.7034,-0.7032,-0.7039,-0.7038,-0.7038,-0.7037,0,0,0,0,0,0,0,-0.7211,-0.7206,-0.7154,-0.7155,-0.7152,-0.7147,-0.7141,-0.7124,-0.7095,-0.7115,-0.7113,-0.7108,-0.7069,-0.706,-0.7057,-0.7032,-0.7039,-0.7038,-0.7037,-0.7036,-0.7001,-0.7001,0,0,0,0,0,0,-0.7217,-0.7208,-0.7155,-0.7152,-0.718,-0.7146,-0.7139,-0.7128,-0.7095,-0.709,-0.7108,-0.7107,-0.7063,-0.7059,-0.7055,-0.7045,-0.7038,-0.7036,-0.7035,-0.7001,-0.7001,-0.7001,0,0,0,0,0,0,-0.7219,-0.7213,-0.7157,-0.718,-0.7172,-0.7144,-0.7132,-0.7127,-0.7117,-0.709,-0.7085,-0.7104,-0.7063,-0.7058,-0.7042,-0.7043,-0.7035,-0.7033,-0.7001,-0.7001,-0.7001,-0.7023,0,0,0,0,0,0,-0.7221,-0.7213,-0.7209,-0.718,-0.7171,-0.7144,-0.7132,-0.7126,-0.7114,-0.7112,-0.7084,-0.708,-0.7063,-0.7045,-0.704,-0.704,-0.7032,-0.7001,-0.7001,-0.7001,-0.7022,-0.7024,-0.7025,0,0,0,0,0,-0.7223,-0.7216,-0.7209,-0.7202,-0.7165,-0.7144,-0.7139,-0.7119,-0.7114,-0.711,-0.7093,-0.7081,-0.7044,-0.7044,-0.7038,-0.7037,-0.7001,-0.7001,-0.7001,-0.7021,-0.7024,-0.7025,0,0,0,0,0,0,-0.7245,-0.7212,-0.7203,-0.7186,-0.7168,-0.7139,-0.7133,-0.7122,-0.7105,-0.7103,-0.708,-0.7074,-0.7061,-0.7048,-0.7048,-0.7029,-0.7021,-0.702,-0.7038,-0.704,-0.7042,-0.7045,-0.703,0,0,0,0,0,-0.7248,-0.7234,-0.7205,-0.7193,-0.7185,-0.7161,-0.7151,-0.7138,-0.7118,-0.711,-0.7091,-0.7074,-0.7058,-0.7048,-0.7032,-0.702,-0.7015,-0.7018,-0.7019,-0.7021,-0.702,-0.7015,-0.7017,-0.7003,-0.7003,-0.7003,0,0,-0.7254,-0.7234,-0.7226,-0.7197,-0.7182,-0.7168,-0.7154,-0.714,-0.713,-0.7108,-0.7092,-0.7078,-0.7057,-0.7044,-0.7037,-0.7032,-0.7023,-0.7021,-0.7023,-0.7021,-0.7016,-0.7017,-0.7019,-0.7003,-0.7003,-0.7003,0,0,-0.7257,-0.724,-0.7229,-0.7215,-0.7192,-0.7176,-0.7174,-0.7148,-0.7138,-0.7122,-0.7106,-0.7094,-0.7067,-0.7054,-0.7043,-0.7045,-0.7034,-0.7041,-0.705,-0.7045,-0.7046,-0.7047,-0.7049,-0.705,-0.7041,-0.7041,-0.7041,0,-0.7267,-0.7245,-0.7225,-0.7212,-0.7201,-0.7182,-0.7172,-0.7158,-0.7132,-0.7125,-0.712,-0.7088,-0.7072,-0.7056,-0.7057,-0.7049,-0.7047,-0.7043,-0.7048,-0.7048,-0.7049,-0.7051,-0.7051,-0.7042,-0.7042,-0.7042,-0.7041,0,-0.726,-0.7245,-0.7239,-0.7215,-0.7203,-0.7191,-0.7171,-0.7162,-0.715,-0.7136,-0.7122,-0.7102,-0.7083,-0.7079,-0.7067,-0.7062,-0.706,-0.7052,-0.7043,-0.7052,-0.7053,-0.7053,-0.7043,-0.7043,-0.7043,-0.7042,0,0,-0.7273,-0.724,-0.7238,-0.7228,-0.7203,-0.7191,-0.7181,-0.7162,-0.7156,-0.7139,-0.713,-0.7109,-0.7102,-0.709,-0.7077,-0.7073,-0.7079,-0.7066,-0.7065,-0.707,-0.7074,-0.7081,-0.7082,-0.7071,-0.7071,-0.7071,-0.7077,0,-0.7273,-0.7252,-0.7235,-0.722,-0.7208,-0.7191,-0.7182,-0.7166,-0.7154,-0.7142,-0.7128,-0.7115,-0.7105,-0.7099,-0.7094,-0.7079,-0.7079,-0.7078,-0.7064,-0.7063,-0.707,-0.7083,-0.7089,-0.7095,-0.7077,-0.7077,-0.7077,0,-0.727,-0.7255,-0.7239,-0.7218,-0.7213,-0.7204,-0.7188,-0.7177,-0.716,-0.7151,-0.7139,-0.7127,-0.7116,-0.7109,-0.7095,-0.7095,-0.7088,-0.708,-0.708,-0.7078,-0.7071,-0.7081,-0.7096,-0.7097,-0.7077,-0.7077,-0.7077,0,-0.7283,-0.7259,-0.7247,-0.7239,-0.7213,-0.7209,-0.7198,-0.7181,-0.7172,-0.7158,-0.7152,-0.7137,-0.7129,-0.7118,-0.7103,-0.7099,-0.7091,-0.7082,-0.7084,-0.7085,-0.7083,-0.7083,-0.7097,-0.7078,-0.7078,-0.7078,-0.7078,0,-0.7285,-0.7277,-0.7253,-0.7245,-0.7236,-0.7218,-0.721,-0.7198,-0.7184,-0.7175,-0.7159,-0.7152,-0.7131,-0.7121,-0.7109,-0.71,-0.7096,-0.709,-0.7087,-0.7091,-0.7092,-0.7086,-0.7086,-0.7078,-0.7078,-0.7078,-0.7078,0,-0.7298,-0.7281,-0.7267,-0.7246,-0.724,-0.7234,-0.7216,-0.7209,-0.7197,-0.7186,-0.7183,-0.7163,-0.7151,-0.7135,-0.7117,-0.7109,-0.7103,-0.7097,-0.7108,-0.7106,-0.711,-0.711,-0.712,-0.7121,-0.7102,-0.7102,-0.7102,0,-0.73,-0.7293,-0.7272,-0.7265,-0.7255,-0.7244,-0.7235,-0.7218,-0.721,-0.7192,-0.7188,-0.7175,-0.7164,-0.7146,-0.7131,-0.7118,-0.7113,-0.7117,-0.711,-0.7116,-0.7114,-0.7115,-0.7115,-0.7119,-0.7119,-0.7119,-0.712,0,-0.7307,-0.73,-0.7288,-0.7274,-0.7265,-0.7253,-0.724,-0.7236,-0.7216,-0.7209,-0.7196,-0.7188,-0.7171,-0.7159,-0.7145,-0.7135,-0.7125,-0.7122,-0.7122,-0.7127,-0.7134,-0.7131,-0.7113,-0.7122,-0.7121,-0.7121,-0.7121,-0.7121,-0.7314,-0.7309,-0.7293,-0.7282,-0.7271,-0.726,-0.7254,-0.7241,-0.7231,-0.7216,-0.7207,-0.7196,-0.7182,-0.7162,-0.7153,-0.7145,-0.7141,-0.714,-0.714,-0.7141,-0.7143,-0.7135,-0.7142,-0.7142,-0.7142,-0.7142,-0.7142,0,-0.7321,-0.7311,-0.7301,-0.7285,-0.7276,-0.7268,-0.7254,-0.7248,-0.7238,-0.7226,-0.7216,-0.7204,-0.7193,-0.7178,-0.7166,-0.7163,-0.7158,-0.716,-0.716,-0.7159,-0.7147,-0.7148,-0.7164,-0.7164,-0.7164,-0.7164,-0.7164,-0.7164,-0.7323,-0.7314,-0.7306,-0.7292,-0.7282,-0.7271,-0.7265,-0.7256,-0.7246,-0.7233,-0.7224,-0.7215,-0.7202,-0.719,-0.718,-0.7176,-0.7173,-0.7177,-0.7172,-0.7161,-0.7159,-0.7157,-0.7159,-0.7177,-0.7177,-0.7184,-0.7184,-0.7185]},{"header":{"parameterUnit":"m.s-1","parameterCategory":1,"la1":30.2991,"la2":30.254,"lo1":-89.0895,"lo2":-89.0444,"dy":0.0017,"dx":0.0017,"nx":28,"ny":28,"refTime":"2025-09-16T09:00:00:Z","depth":0,"parameterNumber":3,"parameterNumberName":"V-component_of_WINDS"},"data":[0,0,0,0,0,0,0,0,0,0,0,0,0,0,0,0,0,0,0,0,0,0,0,0,0,0,0,0,0,0,0,0,0,0,0,0,0,0,0,0,0,0,0,0,0,0,0,0,0,0,0,0,0,0,0,0,0,0,3.9334,3.9333,0,3.9244,3.9243,3.9242,3.9188,3.9188,3.9188,3.9188,3.909,3.9088,3.9085,0,0,0,0,0,0,0,0,0,0,0,0,0,3.9456,3.9454,3.9334,3.9333,3.9332,3.9244,3.9243,3.9241,3.9188,3.9188,3.9188,3.9188,3.9091,3.9088,3.9085,0,0,0,0,0,0,0,0,0,0,0,0,0,3.9388,3.9453,3.9334,3.9295,3.9291,3.9244,3.9242,3.9241,3.9188,3.9188,3.9188,3.9187,3.9092,3.9088,3.9085,3.9069,0,0,3.9074,3.9072,0,0,0,0,0,0,0,0,3.9392,3.9383,3.9302,3.9298,3.9293,3.9227,3.925,3.9183,3.9188,3.9227,3.9188,3.9187,3.9135,3.9128,3.9112,3.9064,3.906,3.9073,3.9071,3.907,3.9069,0,0,0,0,0,0,0,3.9397,3.9387,3.9298,3.9301,3.9295,3.928,3.927,3.9237,3.9184,3.9224,3.922,3.921,3.9133,3.9115,3.9109,3.9058,3.9073,3.907,3.9068,3.9067,3.8992,3.8992,0,0,0,0,0,0,3.9408,3.9391,3.9301,3.9295,3.9343,3.9278,3.9267,3.9248,3.9184,3.9174,3.921,3.9208,3.9122,3.9113,3.9105,3.9082,3.907,3.9066,3.9064,3.8991,3.8992,3.8992,0,0,0,0,0,0,3.9411,3.9401,3.9305,3.9342,3.9329,3.9276,3.9256,3.9247,3.9229,3.9174,3.9164,3.9203,3.9121,3.9111,3.9078,3.9078,3.9065,3.9061,3.8991,3.8992,3.8992,3.9035,0,0,0,0,0,0,3.9415,3.9402,3.9397,3.9343,3.9327,3.9281,3.9256,3.9245,3.9224,3.922,3.9164,3.9155,3.912,3.9084,3.9075,3.9073,3.9058,3.8991,3.8991,3.8992,3.9034,3.9037,3.904,0,0,0,0,0,3.9419,3.9412,3.9397,3.9386,3.932,3.9281,3.9272,3.9234,3.9224,3.9217,3.9182,3.9156,3.908,3.9081,3.907,3.9067,3.8991,3.8991,3.8992,3.9032,3.9036,3.904,0,0,0,0,0,0,3.9466,3.9404,3.9387,3.9362,3.9327,3.9272,3.9263,3.924,3.9206,3.9203,3.9155,3.9143,3.9116,3.9088,3.9091,3.9048,3.9032,3.903,3.9067,3.907,3.9073,3.908,3.9055,0,0,0,0,0,3.9474,3.9449,3.9396,3.9379,3.9362,3.9316,3.9297,3.9271,3.9233,3.9217,3.9179,3.9141,3.9108,3.9088,3.9055,3.9029,3.9016,3.9022,3.9025,3.9028,3.9027,3.901,3.9012,3.8993,3.8993,3.8993,0,0,3.9489,3.9452,3.9439,3.9387,3.9357,3.9331,3.9304,3.9277,3.9257,3.9212,3.918,3.9151,3.9105,3.9077,3.9062,3.9053,3.9029,3.9028,3.9031,3.9028,3.9011,3.9012,3.9014,3.8993,3.8993,3.8993,0,0,3.9503,3.9473,3.9455,3.9426,3.9382,3.9351,3.9346,3.9295,3.9274,3.9241,3.9207,3.9181,3.9126,3.9095,3.9071,3.9073,3.9048,3.9063,3.9079,3.9064,3.9065,3.9067,3.9066,3.9067,3.9062,3.9063,3.9063,0,3.9527,3.9488,3.9449,3.9424,3.9402,3.9362,3.9343,3.9316,3.9262,3.9247,3.9237,3.9167,3.9133,3.9096,3.9097,3.908,3.9072,3.9069,3.9069,3.9069,3.907,3.9069,3.9069,3.9065,3.9064,3.9064,3.9064,0,3.9519,3.9492,3.9483,3.9434,3.941,3.9388,3.9344,3.9325,3.93,3.927,3.9236,3.9194,3.9152,3.9141,3.9116,3.91,3.9095,3.9078,3.9062,3.9074,3.9073,3.9072,3.9068,3.9067,3.9066,3.9066,0,0,3.956,3.949,3.9487,3.9464,3.9411,3.9389,3.9365,3.9324,3.9308,3.9272,3.925,3.9204,3.9187,3.9161,3.9132,3.9119,3.9122,3.9103,3.9101,3.9107,3.91,3.9113,3.9113,3.9105,3.9105,3.9104,3.9103,0,3.9566,3.9522,3.9486,3.9455,3.9429,3.9391,3.9369,3.9334,3.9304,3.9277,3.9243,3.9211,3.9192,3.9176,3.9161,3.9125,3.9119,3.9124,3.9082,3.9081,3.9094,3.9113,3.9127,3.9128,3.9103,3.9102,3.9102,0,3.9567,3.9534,3.9502,3.9451,3.9439,3.9421,3.938,3.9355,3.9313,3.9292,3.9264,3.9234,3.9204,3.9191,3.9149,3.9153,3.9133,3.9113,3.9112,3.9106,3.9092,3.9107,3.9127,3.9127,3.9101,3.9101,3.9101,0,3.96,3.9547,3.952,3.9502,3.9443,3.9431,3.9405,3.9363,3.9341,3.9305,3.929,3.9251,3.9229,3.9199,3.9158,3.9152,3.912,3.9104,3.9101,3.9102,3.9095,3.9096,3.9113,3.9084,3.9084,3.9084,3.9084,0,3.961,3.9592,3.9534,3.9518,3.9495,3.9453,3.9431,3.9402,3.9365,3.934,3.9304,3.9281,3.923,3.9201,3.9169,3.9138,3.9129,3.911,3.9101,3.9113,3.9115,3.9099,3.9098,3.9084,3.9084,3.9084,3.9084,0,3.9643,3.9604,3.9573,3.9519,3.9505,3.9491,3.9444,3.9426,3.9394,3.9364,3.9354,3.9304,3.9268,3.9225,3.9174,3.9153,3.9125,3.9112,3.914,3.9135,3.9134,3.9135,3.914,3.9138,3.9112,3.9112,3.9112,0,3.9652,3.9637,3.9583,3.9565,3.9541,3.9512,3.9489,3.9447,3.9424,3.9375,3.9363,3.9324,3.9291,3.9234,3.9192,3.9153,3.9139,3.9144,3.9133,3.9145,3.9138,3.914,3.9137,3.9146,3.9147,3.9147,3.9148,0,3.9672,3.9654,3.9624,3.9587,3.9562,3.953,3.9496,3.9483,3.9433,3.941,3.9373,3.9348,3.9296,3.9258,3.9213,3.9184,3.9157,3.9152,3.9149,3.916,3.9176,3.9167,3.9147,3.9152,3.9151,3.9151,3.9151,3.9151,3.9693,3.9678,3.9637,3.9604,3.9575,3.9544,3.9524,3.9491,3.946,3.9416,3.9392,3.9356,3.9313,3.925,3.9223,3.9192,3.9183,3.9179,3.9178,3.9177,3.9181,3.9182,3.9184,3.9184,3.9184,3.9184,3.9183,0,3.9711,3.9683,3.9653,3.9608,3.9582,3.9561,3.9522,3.9501,3.9471,3.9434,3.9402,3.9359,3.9322,3.9277,3.9236,3.922,3.9206,3.921,3.9211,3.9204,3.9192,3.9198,3.9222,3.9222,3.9222,3.9222,3.9222,3.9222,3.9717,3.969,3.9666,3.9623,3.9594,3.956,3.9539,3.951,3.9481,3.9435,3.9404,3.9376,3.9335,3.9291,3.9255,3.9242,3.9228,3.9236,3.922,3.9209,3.9205,3.9202,3.9208,3.9234,3.9234,3.9235,3.9235,3.9235]}]]